05.05.2024;13:00;5
05.05.2024;12:00;3
05.05.2024;11:00;5
05.05.2024;10:00;3
05.05.2024;09:00;4
05.05.2024;08:00;4
05.05.2024;07:00;3
05.05.2024;06:00;2
05.05.2024;05:00;2
05.05.2024;04:00;2
05.05.2024;03:00;3
05.05.2024;02:00;2
05.05.2024;01:00;5
05.05.2024;00:00;7
04.05.2024;23:00;8
04.05.2024;22:00;7
04.05.2024;21:00;4
04.05.2024;20:00;3
04.05.2024;19:00;3
04.05.2024;18:00;3
04.05.2024;17:00;2
04.05.2024;16:00;3
04.05.2024;15:00;3
04.05.2024;14:00;2
04.05.2024;13:00;6
04.05.2024;12:00;8
04.05.2024;11:00;9
04.05.2024;10:00;9
04.05.2024;09:00;6
04.05.2024;08:00;4
04.05.2024;07:00;7
04.05.2024;06:00;4
04.05.2024;05:00;4
04.05.2024;04:00;5
04.05.2024;03:00;4
04.05.2024;02:00;5
04.05.2024;01:00;5
04.05.2024;00:00;7
03.05.2024;23:00;10
03.05.2024;22:00;9
03.05.2024;21:00;6
03.05.2024;20:00;8
03.05.2024;19:00;5
03.05.2024;18:00;7
03.05.2024;17:00;6
03.05.2024;16:00;8
03.05.2024;15:00;9
03.05.2024;14:00;6
